Tracking 20942 objects as of 13-Jul-2020
HD Live streaming from Space Station
objects crossing your sky now

OF-2

Track OF-2 now!
10-day predictions
OF-2 is classified as:


NORAD ID: 45113
Int'l Code: 2019-071C
Perigee: 463.7 km
Apogee: 481.8 km
Inclination: 51.6 °
Period: 93.9 minutes
Semi major axis: 6843 km
RCS: Unknown
Launch date: November 2, 2019
Source: United States (US)
Launch site: WALLOPS ISLAND (WLPIS)

Uplink (MHz):
Downlink (MHz): 435.040/2426.000
Beacon (MHz):
Mode: 9k6 GMSK/3-5Mbps QPSK
Call sign: KG5UAK
Status: Inactive

aabbcc
Your satellite tracking list
Your tracking list is empty




NASA's NSSDC Master Catalog

Two Line Element Set (TLE):
1 45113U 19071C   20195.48792308 +.00000524 +00000-0 +27563-4 0  9998
2 45113 051.6432 237.7762 0013203 149.7978 210.3767 15.33426092025126
Source of the keplerian elements: Caltech